• Em Portugal
  • Lista de países
  • Para 7 dias
  • Temperatura da água
  • Mapas de satélite
  • Mapa do tempo
  • Widgets de tempo
  • user-avatar
    Iniciar Sessão

    Previsão horária em Suhochevo

    Hoje, 24 Setembro, Segunda-feira

    Tempo Temperatura Precipitação Vento Pressão Humidade
    00:00 +8°C° 0 mm 3 m/s 745 mmHg 86%
    01:00 +8°C° 0 mm 3 m/s 745 mmHg 85%
    02:00 +7°C° 0 mm 2 m/s 745 mmHg 88%
    03:00 +8°C° 0 mm 3 m/s 745 mmHg 86%
    04:00 +8°C° 0 mm 3 m/s 745 mmHg 85%
    05:00 +8°C° 0 mm 3 m/s 745 mmHg 83%
    06:00 +8°C° 0 mm 4 m/s 744 mmHg 80%
    07:00 +10°C° 0 mm 4 m/s 744 mmHg 77%
    08:00 +9°C° 0 mm 5 m/s 744 mmHg 74%
    09:00 +10°C° 0.4 mm 6 m/s 743 mmHg 74%
    10:00 +10°C° 0.4 mm 7 m/s 742 mmHg 75%
    11:00 +10°C° 0.4 mm 8 m/s 742 mmHg 76%
    12:00 +10°C° 1.2 mm 8 m/s 741 mmHg 77%
    13:00 +10°C° 1.2 mm 8 m/s 740 mmHg 79%
    14:00 +10°C° 1.2 mm 9 m/s 739 mmHg 80%
    15:00 +10°C° 0.7 mm 9 m/s 738 mmHg 82%
    16:00 +11°C° 0.7 mm 9 m/s 737 mmHg 84%
    17:00 +11°C° 0.7 mm 9 m/s 737 mmHg 85%
    18:00 +11°C° 0.3 mm 9 m/s 736 mmHg 85%
    19:00 +10°C° 0.3 mm 8 m/s 736 mmHg 86%
    20:00 +10°C° 0.3 mm 7 m/s 736 mmHg 86%
    21:00 +10°C° 0.1 mm 7 m/s 737 mmHg 85%
    22:00 +9°C° 0.1 mm 7 m/s 737 mmHg 85%
    23:00 +8°C° 0.1 mm 7 m/s 737 mmHg 85%

    Amanhã, 25 Setembro, Terça-feira

    Tempo Temperatura Precipitação Vento Pressão Humidade
    00:00 +8°C° 0 mm 7 m/s 737 mmHg 85%
    01:00 +8°C° 0 mm 6 m/s 738 mmHg 86%
    02:00 +7°C° 0 mm 6 m/s 738 mmHg 86%
    03:00 +6°C° 0 mm 7 m/s 738 mmHg 85%
    04:00 +6°C° 0 mm 7 m/s 738 mmHg 85%
    05:00 +6°C° 0 mm 7 m/s 738 mmHg 84%
    06:00 +6°C° 0 mm 7 m/s 739 mmHg 84%
    07:00 +7°C° 0 mm 6 m/s 739 mmHg 83%
    08:00 +7°C° 0 mm 6 m/s 740 mmHg 82%
    09:00 +8°C° 0.1 mm 6 m/s 740 mmHg 79%
    10:00 +8°C° 0.1 mm 7 m/s 741 mmHg 76%
    11:00 +9°C° 0.1 mm 7 m/s 742 mmHg 73%
    12:00 +8°C° 0 mm 7 m/s 742 mmHg 72%
    13:00 +8°C° 0 mm 7 m/s 743 mmHg 71%
    14:00 +8°C° 0 mm 7 m/s 743 mmHg 71%
    15:00 +8°C° 0 mm 6 m/s 744 mmHg 71%
    16:00 +7°C° 0 mm 6 m/s 745 mmHg 72%
    17:00 +7°C° 0 mm 6 m/s 745 mmHg 72%
    18:00 +7°C° 0 mm 6 m/s 746 mmHg 72%
    19:00 +7°C° 0 mm 5 m/s 746 mmHg 72%
    20:00 +7°C° 0 mm 5 m/s 747 mmHg 72%
    21:00 +6°C° 0 mm 5 m/s 748 mmHg 75%
    22:00 +5°C° 0 mm 4 m/s 748 mmHg 78%
    23:00 +5°C° 0 mm 4 m/s 748 mmHg 81%

    Depois de amanhã, 26 Setembro, Quarta-feira

    Tempo Temperatura Precipitação Vento Pressão Humidade
    00:00 +4°C° 0 mm 4 m/s 749 mmHg 82%
    01:00 +4°C° 0 mm 4 m/s 749 mmHg 82%
    02:00 +3°C° 0 mm 4 m/s 750 mmHg 83%
    03:00 +3°C° 0 mm 4 m/s 751 mmHg 83%
    04:00 +3°C° 0 mm 4 m/s 751 mmHg 84%
    05:00 +1°C° 0 mm 4 m/s 752 mmHg 84%
    06:00 +3°C° 0 mm 4 m/s 752 mmHg 80%
    07:00 +4°C° 0 mm 4 m/s 753 mmHg 76%
    08:00 +3°C° 0 mm 5 m/s 754 mmHg 72%
    09:00 +6°C° 0 mm 5 m/s 754 mmHg 66%
    10:00 +7°C° 0 mm 5 m/s 754 mmHg 59%
    11:00 +8°C° 0 mm 5 m/s 754 mmHg 53%
    12:00 +8°C° 0 mm 5 m/s 754 mmHg 51%
    13:00 +9°C° 0 mm 5 m/s 754 mmHg 49%
    14:00 +9°C° 0 mm 5 m/s 754 mmHg 47%
    15:00 +8°C° 0 mm 4 m/s 754 mmHg 50%
    16:00 +8°C° 0 mm 3 m/s 754 mmHg 54%
    17:00 +8°C° 0 mm 3 m/s 754 mmHg 58%
    18:00 +7°C° 0 mm 3 m/s 754 mmHg 60%
    19:00 +7°C° 0 mm 3 m/s 754 mmHg 63%
    20:00 +6°C° 0 mm 4 m/s 754 mmHg 66%
    21:00 +6°C° 0 mm 4 m/s 753 mmHg 67%
    22:00 +6°C° 0 mm 5 m/s 753 mmHg 69%
    23:00 +6°C° 0 mm 5 m/s 752 mmHg 70%

    27 Setembro, Quinta-feira

    Tempo Temperatura Precipitação Vento Pressão Humidade
    00:00 +5°C° 0.1 mm 6 m/s 752 mmHg 69%
    01:00 +5°C° 0.1 mm 6 m/s 751 mmHg 68%
    02:00 +5°C° 0.1 mm 7 m/s 750 mmHg 67%
    03:00 +5°C° 0.3 mm 7 m/s 749 mmHg 69%
    04:00 +5°C° 0.3 mm 8 m/s 748 mmHg 71%
    05:00 +5°C° 0.3 mm 9 m/s 748 mmHg 73%
    06:00 +5°C° 0.7 mm 9 m/s 747 mmHg 76%
    07:00 +5°C° 0.7 mm 9 m/s 746 mmHg 78%
    08:00 +5°C° 0.7 mm 9 m/s 746 mmHg 81%
    09:00 +5°C° 0.4 mm 9 m/s 746 mmHg 82%
    10:00 +6°C° 0.4 mm 9 m/s 745 mmHg 83%
    11:00 +6°C° 0.4 mm 8 m/s 745 mmHg 84%
    12:00 +6°C° 0.7 mm 8 m/s 745 mmHg 86%
    13:00 +7°C° 0.7 mm 8 m/s 745 mmHg 87%
    14:00 +8°C° 0.7 mm 7 m/s 745 mmHg 89%
    15:00 +8°C° 0.3 mm 7 m/s 745 mmHg 89%
    16:00 +8°C° 0.3 mm 6 m/s 745 mmHg 90%
    17:00 +8°C° 0.3 mm 6 m/s 744 mmHg 91%
    18:00 +8°C° 0.1 mm 6 m/s 745 mmHg 91%
    19:00 +9°C° 0.1 mm 6 m/s 745 mmHg 91%
    20:00 +9°C° 0.1 mm 6 m/s 745 mmHg 91%
    21:00 +9°C° 0 mm 5 m/s 745 mmHg 92%
    22:00 +9°C° 0 mm 5 m/s 745 mmHg 92%
    23:00 +9°C° 0 mm 5 m/s 745 mmHg 93%

    28 Setembro, Sexta-feira

    Tempo Temperatura Precipitação Vento Pressão Humidade
    00:00 +10°C° 0 mm 4 m/s 745 mmHg 94%
    01:00 +8°C° 0 mm 4 m/s 746 mmHg 95%
    02:00 +8°C° 0 mm 4 m/s 746 mmHg 97%
    03:00 +8°C° 0 mm 4 m/s 746 mmHg 97%
    04:00 +8°C° 0 mm 4 m/s 746 mmHg 97%
    05:00 +9°C° 0 mm 3 m/s 746 mmHg 97%
    06:00 +10°C° 0 mm 4 m/s 746 mmHg 95%
    07:00 +10°C° 0 mm 4 m/s 746 mmHg 93%
    08:00 +9°C° 0 mm 5 m/s 746 mmHg 92%
    09:00 +10°C° 0 mm 5 m/s 745 mmHg 89%
    10:00 +11°C° 0 mm 6 m/s 745 mmHg 86%
    11:00 +12°C° 0 mm 7 m/s 745 mmHg 83%
    12:00 +14°C° 0 mm 7 m/s 744 mmHg 82%
    13:00 +13°C° 0 mm 8 m/s 744 mmHg 82%
    14:00 +13°C° 0 mm 8 m/s 744 mmHg 81%
    15:00 +14°C° 0 mm 7 m/s 744 mmHg 82%
    16:00 +14°C° 0 mm 6 m/s 743 mmHg 83%
    17:00 +14°C° 0 mm 6 m/s 743 mmHg 84%
    18:00 +14°C° 0.1 mm 6 m/s 743 mmHg 84%
    19:00 +14°C° 0.1 mm 6 m/s 742 mmHg 83%
    20:00 +14°C° 0.1 mm 7 m/s 742 mmHg 82%
    21:00 +14°C° 0.1 mm 6 m/s 742 mmHg 84%
    22:00 +14°C° 0.1 mm 6 m/s 742 mmHg 86%
    23:00 +14°C° 0.1 mm 6 m/s 742 mmHg 87%

    29 Setembro, Sábado

    Tempo Temperatura Precipitação Vento Pressão Humidade
    00:00 +13°C° 0.2 mm 5 m/s 742 mmHg 89%
    01:00 +13°C° 0.2 mm 5 m/s 742 mmHg 90%
    02:00 +13°C° 0.2 mm 4 m/s 742 mmHg 91%
    03:00 +12°C° 0.7 mm 4 m/s 742 mmHg 91%
    04:00 +11°C° 0.7 mm 3 m/s 743 mmHg 92%
    05:00 +11°C° 0.7 mm 3 m/s 743 mmHg 92%
    06:00 +10°C° 0.4 mm 3 m/s 744 mmHg 91%
    07:00 +10°C° 0.4 mm 3 m/s 744 mmHg 90%
    08:00 +10°C° 0.4 mm 3 m/s 745 mmHg 89%
    09:00 +10°C° 0.1 mm 3 m/s 745 mmHg 86%
    10:00 +10°C° 0.1 mm 4 m/s 746 mmHg 84%
    11:00 +10°C° 0.1 mm 4 m/s 746 mmHg 81%
    12:00 +10°C° 0 mm 4 m/s 747 mmHg 79%
    13:00 +10°C° 0 mm 4 m/s 747 mmHg 76%
    14:00 +10°C° 0 mm 4 m/s 747 mmHg 74%
    15:00 +10°C° 0.1 mm 4 m/s 748 mmHg 74%
    16:00 +9°C° 0.1 mm 3 m/s 748 mmHg 75%
    17:00 +9°C° 0.1 mm 3 m/s 748 mmHg 75%
    18:00 +9°C° 0 mm 3 m/s 749 mmHg 74%
    19:00 +7°C° 0 mm 4 m/s 750 mmHg 72%
    20:00 +7°C° 0 mm 4 m/s 751 mmHg 71%
    21:00 +6°C° 0 mm 4 m/s 751 mmHg 71%
    22:00 +5°C° 0 mm 4 m/s 752 mmHg 72%
    23:00 +4°C° 0 mm 3 m/s 752 mmHg 72%
    Mostrar mais